AirNav   Bose ProFlight Series 2 Headset
 
 554 users online  

9MO1 Missouri Baptist Hospital Heliport
St Louis, Missouri, USA

GOING TO ST LOUIS?


FAA INFORMATION EFFECTIVE 02 JANUARY 2020

Location

FAA Identifier: 9MO1
Lat/Long: 38-38-08.1800N 090-26-43.3800W
38-38.136333N 090-26.723000W
38.6356056,-90.4453833
(estimated)
Elevation: 713 ft. / 217 m (estimated)
Variation: 02E (1985)
Time zone: UTC -6 (UTC -5 during Daylight Saving Time)
Zip code: 63131

Heliport Operations

Heliport use: Private use, MEDICAL.
Activation date: 06/1974
Control tower: no
ARTCC: KANSAS CITY CENTER
FSS: SAINT LOUIS FLIGHT SERVICE STATION
Attendance: CONTINUOUS
Wind indicator: yes
Segmented circle: no

Heliport Communications

WX ASOS at STL (8 nm NE): 125.025 (314-890-4790)
WX ASOS at SUS (10 nm W): 134.8 (314-890-7255)
WX ASOS at CPS (14 nm E): PHONE 618-332-0001
WX ASOS at SET (18 nm N): 118.075 (636-250-4590)

Nearby radio navigation aids

VOR radial/distance  VOR name  Freq  Var
STLr172/13.6ST LOUIS VORTAC117.4001E
FTZr093/24.9FORISTELL VORTAC110.8005E
TOYr252/25.4TROY VORTAC116.0004E

 
NDB name  Hdg/Dist  Freq  Var  ID
EAVES119/5.422701WFZ ..-. --..
OBLIO173/10.033801WLM .-.. --
ZUMAY221/12.040401WST ... -
CIVIC MEMORIAL231/23.826301WCVM -.-. ...- --

Heliport Services

Runway Information

Helipad H1

Dimensions: 45 x 44 ft. / 14 x 13 m
Surface: mats
Latitude: 38-38.136333N
Longitude: 090-26.723000W
Elevation: 713.0 ft.
Traffic pattern: leftleft

Heliport Ownership and Management from official FAA records

Ownership: Privately-owned
Owner: MISSOURI BAPTIST HOSPITAL
3015 N BALLAS RD
ST LOUIS, MO 63131
Phone 314-996-5253
Manager: KEITH STUMPF
3015 N BALLAS RD
ST LOUIS, MO 63131
Phone 314-996-5253

Additional Remarks

INGRESS/EGRESS LIMITED FROM H1 FROM 355 DEG CLOCKWISE TO 175 DEG, RELATIVE TO TRUE NORTH.
FOR CD CTC ST LOUIS APCH AT 314-890-1018.

Instrument Procedures

There are no published instrument procedures at 9MO1.

Some nearby airports with instrument procedures:

1H0 - Creve Coeur Airport (6 nm NW)
KSTL - St Louis Lambert International Airport (8 nm NE)
KSUS - Spirit of St Louis Airport (10 nm W)
KCPS - St Louis Downtown Airport (14 nm E)
KSET - St Charles County Smartt Airport (18 nm N)
 
Loc | Ops | Rwys | IFR | FBO | Links
Com | Nav | Svcs | Stats | Notes

Kansas City Aviation Department
 
Area around 9MO1 (Missouri Baptist Hospital Heliport)
 
Road maps at: MapQuest Bing Google
 
Aerial photo
No photo
 
Sectional chart

 
Airport distance calculator
Flying to Missouri Baptist Hospital Heliport? Find the distance to fly.

From to 9MO1

Sunrise and sunset
Times for 18-Jan-2020
 Local
(UTC-6)
 Zulu
(UTC)
Morning civil twilight06:4912:49
Sunrise07:1813:18
Sunset17:0723:07
Evening civil twilight17:3523:35

Current date and time
Zulu (UTC)  18-Jan-2020 09:31:11
Local (UTC-6)  18-Jan-2020 03:31:11
 
METAR
KSTL 
8nm NE 
180901Z 17008KT 10SM -DZ FEW004 SCT021 OVC040 04/03 A2985 RMK AO2 P0000 T00440028 $
KSUS 
10nm W 
180854Z AUTO 06004KT 10SM -RA BKN008 OVC017 04/03 A2984 RMK AO2 SLP110 P0001 60062 T00390033 56022
KCPS 
14nm E 
180912Z AUTO 16007KT 1 3/4SM +RA BR FEW012 BKN035 OVC055 04/03 A2985 RMK AO2 PRESFR P0009 T00440033 $
KSET 
18nm N 
180854Z AUTO 12006KT 10SM OVC008 02/02 A2984 RMK AO2 RAE31UPB28E30 CIG 007V013 SLP108 6//// T00220017 56048 PNO $
TAF
KSTL 
8nm NE 
180539Z 1806/1912 17012G20KT 3SM -RA BR OVC006 WS020/20045KT FM181200 22015G23KT 5SM BR OVC007 FM181400 27017G26KT P6SM OVC014 FM182200 29020G29KT P6SM OVC020 FM190200 29016G25KT P6SM SCT027
KSUS 
10nm W 
180539Z 1806/1906 17012G20KT 3SM -RA BR OVC007 WS020/20045KT FM181200 22015G23KT 5SM BR OVC007 FM181400 27017G26KT P6SM OVC014 FM182200 29020G29KT P6SM OVC020 FM190200 29016G25KT P6SM SCT027
KCPS 
14nm E 
180539Z 1806/1906 17012G20KT 3SM -RA BR OVC007 WS020/20045KT FM181200 22015G23KT 5SM BR OVC007 FM181400 27017G26KT P6SM OVC014 FM182200 29020G29KT P6SM OVC020 FM190200 29016G25KT P6SM SCT027
NOTAMs
Click for the latest NOTAMs
NOTAMs are issued by the DoD/FAA and will open in a separate window not controlled by AirNav.

 

 
 

Would you like to see your business listed on this page?

 If your business provides an interesting product or service to pilots, flight crews, aircraft, or users of the Missouri Baptist Hospital Heliport, you should consider listing it here.  To start the listing process, click on the button below
 
Add a business
 

Other Pages about Missouri Baptist Hospital Heliport

Update a link
 
Copyright © AirNav, LLC. All rights reserved. Privacy Policy  Contact